[[{"header":{"parameterUnit":"m.s-1","parameterCategory":1,"la1":30.2992,"la2":30.254,"lo1":-89.0895,"lo2":-89.0443,"dy":0.0025,"dx":0.0025,"nx":19,"ny":19,"refTime":"2026-05-10T09:00:00:Z","depth":0,"parameterNumber":2,"parameterNumberName":"U-component_of_WINDS"},"data":[0,0,0,-1.0782,-1.0782,-1.0784,-1.0784,-1.0808,-1.0808,0,0,0,0,0,0,0,0,0,0,0,-1.0794,-1.0794,-1.0782,-1.0782,-1.0784,-1.0784,-1.0808,-1.0808,0,0,0,0,0,0,0,0,0,0,0,-1.0793,-1.0794,-1.0795,-1.0783,-1.0784,-1.0784,-1.0808,-1.0799,0,0,0,0,0,0,0,0,0,0,-1.0794,-1.0816,-1.0794,-1.0795,-1.0783,-1.0784,-1.0784,-1.0798,-1.08,-1.0816,0,-1.0833,0,-1.0821,-1.0811,-1.0812,0,0,0,-1.0774,-1.0815,-1.0804,-1.0795,-1.0783,-1.0784,-1.0781,-1.0799,-1.08,-1.0818,-1.0834,-1.0834,-1.0822,-1.0812,-1.0812,-1.0936,-1.0937,0,0,-1.0773,-1.0801,-1.0804,-1.0806,-1.0806,-1.0781,-1.0781,-1.0799,-1.0818,-1.0834,-1.0834,-1.0822,-1.0812,-1.0812,-1.0935,-1.0936,0,0,0,-1.0779,-1.0801,-1.079,-1.0806,-1.0804,-1.0781,-1.0781,-1.0818,-1.0811,-1.0834,-1.0823,-1.0812,-1.0813,-1.0934,-1.0935,-1.1012,0,0,0,-1.0779,-1.0804,-1.079,-1.0807,-1.0804,-1.0811,-1.08,-1.081,-1.0811,-1.0822,-1.0812,-1.0813,-1.0933,-1.0935,-1.1007,-1.1044,0,0,0,-1.079,-1.0805,-1.081,-1.0808,-1.081,-1.081,-1.0804,-1.081,-1.0805,-1.0812,-1.0813,-1.0932,-1.0934,-1.1003,-1.1037,-1.1085,0,0,0,-1.0809,-1.0878,-1.0812,-1.0884,-1.081,-1.0857,-1.0804,-1.0837,-1.0852,-1.0812,-1.0933,-1.0935,-1.1002,-1.1033,-1.1081,-1.1131,-1.1154,0,0,-1.0911,-1.0891,-1.0931,-1.0872,-1.0937,-1.0854,-1.0931,-1.0919,-1.0894,-1.0924,-1.0926,-1.1009,-1.1036,-1.1084,-1.1273,-1.1292,0,0,0,-1.0973,-1.1002,-1.1013,-1.1028,-1.1021,-1.1017,-1.099,-1.0986,-1.1009,-1.0915,-1.1038,-1.1053,-1.108,-1.1103,-1.1119,-1.1141,-1.0947,-1.0946,-1.0946,-1.1157,-1.1121,-1.1186,-1.1152,-1.1167,-1.1139,-1.1149,-1.1138,-1.1098,-1.1128,-1.1137,-1.1256,-1.1283,-1.1295,-1.1318,-1.116,-1.116,-1.116,-1.116,-1.1303,-1.134,-1.1285,-1.1328,-1.1291,-1.1327,-1.1303,-1.1274,-1.1303,-1.1246,-1.1268,-1.121,-1.1317,-1.1335,-1.1166,-1.1165,-1.1164,-1.1164,-1.1163,-1.1421,-1.1432,-1.1425,-1.1444,-1.1463,-1.1425,-1.1456,-1.1421,-1.1388,-1.141,-1.1416,-1.1415,-1.141,-1.1415,-1.1415,-1.1416,-1.1416,-1.1417,-1.1417,-1.1546,-1.1535,-1.1565,-1.1563,-1.1568,-1.1571,-1.1544,-1.1549,-1.1545,-1.1517,-1.1517,-1.1476,-1.1333,-1.1299,-1.1423,-1.1422,-1.1421,-1.1421,-1.142,-1.1709,-1.1666,-1.1712,-1.1718,-1.1713,-1.1735,-1.1689,-1.1702,-1.1701,-1.1718,-1.1671,-1.1571,-1.1548,-1.1535,-1.1507,-1.1677,-1.1677,-1.1677,-1.1677,-1.1809,-1.1794,-1.1833,-1.1845,-1.1852,-1.1816,-1.187,-1.185,-1.1822,-1.182,-1.179,-1.1749,-1.1737,-1.1721,-1.1704,-1.1677,-1.1887,-1.1887,-1.1887,-1.1908,-1.1892,-1.1945,-1.1916,-1.191,-1.1906,-1.1956,-1.1972,-1.1932,-1.1895,-1.1817,-1.1809,-1.1741,-1.1721,-1.1684,-1.1658,-1.1607,0,0]},{"header":{"parameterUnit":"m.s-1","parameterCategory":1,"la1":30.2992,"la2":30.254,"lo1":-89.0895,"lo2":-89.0443,"dy":0.0025,"dx":0.0025,"nx":19,"ny":19,"refTime":"2026-05-10T09:00:00:Z","depth":0,"parameterNumber":3,"parameterNumberName":"V-component_of_WINDS"},"data":[0,0,0,-0.7723,-0.7723,-0.7709,-0.7709,-0.7698,-0.7698,0,0,0,0,0,0,0,0,0,0,0,-0.7732,-0.7732,-0.7723,-0.7723,-0.7709,-0.7709,-0.7698,-0.7698,0,0,0,0,0,0,0,0,0,0,0,-0.7732,-0.7732,-0.7732,-0.7723,-0.7709,-0.7709,-0.7698,-0.7706,0,0,0,0,0,0,0,0,0,0,-0.7718,-0.7731,-0.7732,-0.7732,-0.7723,-0.7709,-0.7709,-0.7706,-0.7706,-0.7707,0,-0.771,0,-0.7704,-0.7698,-0.7698,0,0,0,-0.772,-0.7731,-0.7724,-0.7732,-0.7723,-0.7709,-0.7714,-0.7706,-0.7705,-0.7706,-0.771,-0.7709,-0.7704,-0.7698,-0.7698,-0.7719,-0.7719,0,0,-0.7721,-0.7732,-0.7724,-0.7723,-0.7726,-0.7715,-0.7714,-0.7705,-0.771,-0.771,-0.7709,-0.7704,-0.7698,-0.7698,-0.7718,-0.7719,0,0,0,-0.7725,-0.7732,-0.7725,-0.7724,-0.7721,-0.7715,-0.7714,-0.771,-0.7707,-0.7709,-0.7703,-0.7698,-0.7698,-0.7718,-0.7718,-0.7741,0,0,0,-0.7725,-0.7735,-0.7725,-0.7732,-0.7721,-0.7715,-0.7719,-0.7707,-0.7706,-0.7703,-0.7698,-0.7697,-0.7718,-0.7718,-0.774,-0.775,0,0,0,-0.7731,-0.7735,-0.7735,-0.7732,-0.7727,-0.7715,-0.7711,-0.7707,-0.7703,-0.7698,-0.7697,-0.7718,-0.7718,-0.7739,-0.7748,-0.7759,0,0,0,-0.7741,-0.7756,-0.7735,-0.775,-0.7727,-0.773,-0.7711,-0.7713,-0.7711,-0.7698,-0.7718,-0.7718,-0.7739,-0.7747,-0.7758,-0.7769,-0.7775,0,0,-0.7766,-0.7759,-0.7767,-0.7748,-0.7757,-0.7731,-0.7743,-0.7731,-0.7721,-0.772,-0.772,-0.774,-0.7748,-0.7758,-0.7805,-0.781,0,0,0,-0.7779,-0.7784,-0.7784,-0.7783,-0.7774,-0.7767,-0.7752,-0.7748,-0.7746,-0.7723,-0.7747,-0.7751,-0.7757,-0.7761,-0.7766,-0.7769,-0.7721,-0.7721,-0.7721,-0.783,-0.7815,-0.7827,-0.7811,-0.781,-0.7794,-0.7792,-0.7783,-0.7769,-0.7775,-0.7774,-0.7804,-0.7811,-0.7814,-0.7818,-0.778,-0.778,-0.778,-0.778,-0.7865,-0.7871,-0.7851,-0.7856,-0.784,-0.7844,-0.7829,-0.7819,-0.7819,-0.7804,-0.7808,-0.7791,-0.7819,-0.7822,-0.7781,-0.7781,-0.7781,-0.7781,-0.7781,-0.7897,-0.7897,-0.7891,-0.7887,-0.7886,-0.7869,-0.7871,-0.7857,-0.7844,-0.7848,-0.7845,-0.7845,-0.7842,-0.7848,-0.7848,-0.7848,-0.7848,-0.7848,-0.7848,-0.7932,-0.7924,-0.7927,-0.7919,-0.7916,-0.7911,-0.7895,-0.7891,-0.7884,-0.7874,-0.7873,-0.7859,-0.7825,-0.7816,-0.785,-0.7849,-0.7849,-0.7849,-0.7849,-0.7972,-0.7961,-0.7965,-0.7963,-0.7951,-0.7951,-0.7933,-0.7927,-0.7922,-0.7924,-0.7908,-0.7885,-0.7877,-0.7874,-0.7867,-0.7911,-0.7911,-0.7911,-0.7911,-0.7998,-0.7993,-0.7995,-0.7991,-0.7986,-0.797,-0.7975,-0.7963,-0.7948,-0.7944,-0.7936,-0.7925,-0.7922,-0.7916,-0.7912,-0.7905,-0.7958,-0.7958,-0.7958,-0.8022,-0.8016,-0.8023,-0.8009,-0.7999,-0.7991,-0.7995,-0.7991,-0.7972,-0.796,-0.7941,-0.7939,-0.7921,-0.7917,-0.7904,-0.7897,-0.7884,0,0]}]]